Theta_e
324 323 322 327 332 329 329 328 326 326 325 327 329 332 336 338 342 347 345 345 346 345 347 347 344 345 341 337 332 342 343 343 343 344 344 344 343 341 338 340 337 338 340 340 340 340 341 340 341
323 322 322 326 330 327 327 326 327 326 324 324 325 329 335 337 340 346 345 346 346 346 347 347 344 344 343 339 333 337 342 343 343 344 344 344 343 340 338 338 336 341 341 340 339 339 338 340 340
322 322 320 321 325 327 324 324 325 324 324 324 324 327 331 334 344 345 346 346 347 346 347 347 344 344 343 339 333 337 341 342 343 344 343 343 341 340 338 337 337 337 339 338 338 335 335 336 336
321 322 320 324 319 319 320 322 324 324 323 323 323 326 330 339 345 346 346 346 347 346 346 346 344 343 339 336 336 338 341 342 343 343 344 342 340 338 336 336 337 336 337 336 336 334 330 326 327
320 321 321 319 316 315 316 320 323 323 323 323 323 324 327 343 345 346 346 347 347 346 347 346 343 339 339 341 340 339 341 342 343 343 342 341 338 336 336 336 336 336 336 334 334 327 320 316 316
319 317 319 320 316 315 314 317 323 323 323 322 322 322 325 341 346 343 346 347 346 346 346 346 342 337 341 343 341 340 341 342 343 342 341 339 336 335 335 335 335 336 336 335 333 325 319 317 317
316 317 317 315 315 315 315 315 321 322 324 324 322 322 324 343 344 343 339 344 346 346 346 346 343 338 343 344 344 341 342 342 342 341 340 337 335 333 334 337 336 333 335 334 330 323 320 319 320
315 315 315 314 315 315 314 315 316 320 325 324 323 325 325 336 345 341 336 343 346 345 345 344 341 337 342 343 344 344 343 342 341 340 338 335 334 331 335 337 336 332 334 332 330 327 325 323 323
311 314 313 312 311 313 314 315 315 316 320 323 324 327 326 326 344 345 343 344 344 344 344 343 340 337 336 344 343 343 342 341 339 339 336 333 332 335 338 339 335 331 331 331 329 329 328 328 327
312 312 311 310 310 311 312 315 316 317 316 319 323 323 324 327 339 345 345 341 343 343 343 342 339 337 335 339 342 342 341 340 339 337 335 330 331 334 338 337 335 332 330 329 329 328 329 331 331
311 312 309 309 309 310 310 313 314 316 318 319 320 323 326 325 337 344 345 342 342 342 342 341 339 338 335 333 341 341 339 339 337 337 331 330 332 334 337 336 335 335 331 331 330 329 330 330 330
309 308 309 309 309 309 310 311 313 315 317 317 319 322 325 324 325 327 342 342 341 341 342 340 338 337 333 332 332 336 339 338 334 332 331 333 335 333 335 335 337 334 333 332 330 330 330 330 330
308 307 307 307 309 310 310 310 312 313 315 316 318 319 323 323 323 325 325 340 333 332 341 339 338 335 333 332 330 330 331 332 331 330 333 335 336 334 336 336 336 334 333 331 328 327 328 329 329
306 307 308 308 309 309 311 311 310 312 314 318 319 319 319 321 320 321 324 338 336 336 340 340 338 334 336 334 332 329 329 329 330 329 332 336 334 333 333 333 333 332 331 328 327 326 326 327 328
307 307 307 307 308 310 310 312 312 309 312 316 319 320 319 320 318 322 325 335 335 339 340 341 340 336 337 337 336 332 329 329 329 329 330 333 333 332 331 331 330 329 328 327 326 325 327 329 331
306 306 308 305 308 309 311 314 310 310 311 313 317 320 318 319 318 322 327 324 332 334 340 341 340 338 336 337 336 335 331 328 329 329 330 330 330 330 329 329 328 327 326 326 326 326 329 333 333
305 307 305 305 306 309 311 313 312 313 313 313 317 319 317 318 317 320 327 323 329 327 335 340 340 339 338 337 337 335 336 332 328 327 328 329 328 328 328 326 326 327 329 331 331 332 333 334 333
305 306 306 307 308 311 312 312 313 316 318 319 319 318 316 316 317 317 326 325 331 328 332 340 340 339 339 338 338 337 338 337 336 331 328 327 327 327 327 328 330 331 332 332 332 332 333 333 332
305 306 307 306 306 308 313 313 313 317 318 319 319 317 316 316 316 317 320 324 329 333 337 338 340 339 338 337 336 335 336 335 336 336 335 334 332 332 332 333 333 334 334 334 334 334 334 333 331
306 306 307 306 308 310 312 314 312 315 317 318 318 316 316 316 316 317 320 330 325 336 337 339 339 339 338 337 336 336 336 335 334 334 333 333 334 335 335 335 334 334 334 334 333 333 332 333 331
307 308 308 310 312 311 314 314 314 316 315 315 315 316 315 316 317 318 320 333 330 333 336 338 339 339 338 337 336 336 335 333 334 334 333 331 331 330 332 333 333 333 333 333 333 333 334 333 330
310 309 313 314 313 319 314 319 317 315 316 317 318 318 318 317 318 318 321 332 333 333 337 338 339 338 338 338 337 336 335 334 332 334 334 330 328 328 330 330 329 330 331 331 330 331 332 330 329
313 309 311 315 316 319 317 322 319 318 319 318 318 319 319 318 317 318 321 332 334 333 332 336 337 338 338 337 336 336 336 336 335 335 334 332 331 331 329 328 330 329 329 330 330 331 330 329 330
309 313 315 314 317 324 320 321 323 323 319 320 318 318 318 319 318 319 325 333 332 331 330 329 334 335 335 335 336 334 334 335 334 334 334 333 332 329 328 328 327 327 329 330 328 326 329 329 329
310 315 319 321 323 324 321 317 315 313 317 318 318 318 319 318 319 318 321 330 333 331 329 330 328 330 330 329 331 332 330 329 331 333 333 333 332 330 330 329 329 328 329 329 327 329 328 329 329
311 314 319 320 323 323 318 320 314 311 310 311 318 316 317 318 317 315 322 326 331 333 333 331 331 329 329 327 329 329 329 330 330 329 329 330 329 328 329 330 331 330 330 328 329 329 329 327 327
313 316 314 317 313 319 319 315 314 312 312 312 318 316 317 318 314 314 319 324 330 331 331 331 330 330 329 329 328 328 326 329 328 328 328 329 328 328 330 329 331 330 330 329 329 328 326 327 325
313 312 319 318 320 323 318 319 317 314 313 312 317 315 317 317 313 314 318 320 324 330 330 329 331 331 331 328 328 326 324 328 326 324 328 327 328 328 330 330 330 328 327 326 325 324 323 322 321
314 315 315 314 313 320 320 320 310 312 312 313 314 317 316 315 314 314 313 318 322 326 328 328 328 329 330 329 328 326 326 324 323 324 327 330 329 327 328 328 326 325 324 323 322 322 320 317 316
311 314 314 320 317 314 317 317 309 311 313 313 312 314 315 313 313 314 313 315 320 324 325 324 324 325 326 327 328 327 326 326 326 326 326 327 326 328 327 325 323 321 320 320 318 317 313 313 313
Wind_Speed
3 4 3 5 8 9 25 25 18 18 11 16 10 10 14 17 10 2 2 18 26 33 33 33 31 28 27 27 28 28 28 29 27 27 26 25 25 25 24 24 23 22 23 23 22 20 20 20 21
4 4 4 3 10 19 21 21 19 18 14 3 16 15 9 17 1 4 9 11 25 31 32 31 32 29 28 27 27 30 29 30 29 28 27 27 26 24 26 25 24 22 22 23 20 19 19 19 20
3 4 5 5 15 26 21 20 18 17 16 6 5 14 16 13 2 6 3 19 28 30 30 30 32 30 29 27 27 31 30 30 29 28 27 28 26 25 26 26 24 22 21 21 19 18 18 17 18
6 5 4 10 25 21 28 20 14 18 25 13 9 9 12 5 9 4 12 23 30 30 29 31 33 30 28 28 29 33 32 31 29 28 29 27 25 26 29 28 25 22 21 20 19 17 17 17 17
6 3 11 17 27 25 20 20 21 18 20 21 20 18 16 6 11 17 16 26 29 30 28 29 32 30 29 29 31 32 32 31 30 30 30 26 27 28 29 28 24 23 21 20 19 18 18 19 18
5 5 12 19 25 22 19 22 19 23 23 14 18 18 15 8 16 22 19 22 26 29 28 29 30 30 31 29 32 33 32 32 32 32 28 26 28 30 31 27 24 23 23 20 19 18 19 19 19
12 11 19 24 24 23 20 18 19 24 23 23 10 21 16 9 20 28 29 20 25 27 28 28 26 28 32 29 30 33 32 33 33 30 27 26 27 31 33 26 25 23 23 21 20 19 19 19 19
7 7 20 20 21 27 19 19 24 25 27 19 13 10 17 8 18 27 35 26 27 28 28 28 27 27 28 26 30 32 33 33 31 27 26 26 26 33 31 26 24 23 24 21 20 20 18 18 17
8 10 14 21 24 24 15 20 21 22 21 22 15 14 16 21 16 27 29 32 28 30 31 31 29 28 30 26 29 32 32 32 29 25 25 25 22 28 26 23 22 22 22 21 19 19 18 16 15
11 13 22 21 20 20 21 12 17 19 25 26 21 20 13 21 21 26 30 30 27 30 31 31 31 29 29 28 30 28 28 26 21 24 23 23 24 25 23 23 21 19 20 18 18 17 17 13 9
9 19 19 21 17 17 21 21 19 19 20 23 24 22 14 12 13 28 27 36 42 31 34 30 29 28 29 28 29 26 25 23 22 21 24 22 23 25 21 24 22 17 17 14 14 15 11 10 8
14 20 18 21 19 19 22 21 23 22 21 20 21 23 19 12 11 15 27 32 35 27 32 32 30 29 27 27 27 26 24 22 22 24 24 24 23 25 23 25 19 18 15 14 13 11 9 9 8
18 19 19 19 19 20 20 25 25 24 21 20 21 18 21 15 14 18 25 33 35 36 34 32 30 30 28 28 26 26 24 23 23 25 24 23 23 24 22 20 20 18 16 14 12 11 10 8 7
13 12 17 17 19 19 22 23 22 28 17 16 17 19 26 20 15 20 19 28 32 31 30 33 32 30 28 27 27 25 24 23 22 23 24 21 22 22 22 21 19 17 15 13 11 10 9 7 5
14 17 18 20 18 21 15 25 28 28 25 19 17 18 28 24 20 21 20 28 37 29 37 33 33 31 29 28 25 24 24 23 22 21 22 21 21 20 19 18 16 15 13 12 10 10 8 7 6
13 12 15 15 12 20 18 25 25 23 23 23 19 18 20 27 19 25 22 16 31 39 36 31 32 34 32 28 29 22 22 22 21 20 20 20 19 18 17 16 15 14 12 11 10 9 8 6 5
7 13 17 16 14 14 21 17 19 11 18 23 19 18 12 16 16 22 20 18 29 43 41 41 36 35 31 30 32 25 22 20 20 19 19 20 18 18 16 14 13 14 12 11 10 9 7 6 4
11 10 15 15 7 10 16 19 7 11 13 14 17 12 10 8 11 17 13 15 32 36 44 43 45 38 33 30 29 23 21 20 20 20 20 20 19 17 15 13 13 13 11 10 10 8 7 5 4
14 17 22 22 20 13 15 18 15 9 9 11 13 8 7 10 13 14 16 31 30 37 42 36 41 41 33 30 29 25 23 21 20 19 19 19 18 17 16 13 12 11 10 10 10 8 7 6 5
19 20 23 23 23 17 15 19 17 13 12 12 13 12 11 12 13 9 15 27 30 40 38 36 32 32 33 30 29 28 23 20 20 20 21 20 20 19 17 14 12 13 11 11 11 10 7 8 9
19 19 21 21 8 14 12 12 14 8 9 11 12 10 11 11 12 9 12 24 29 29 29 31 28 29 31 29 28 22 21 16 17 19 18 19 20 20 18 14 13 13 13 11 10 11 10 10 7
19 7 14 16 10 5 16 6 11 10 10 14 13 12 8 10 7 6 13 23 35 31 37 30 26 28 31 27 27 28 27 22 22 21 19 23 22 20 19 18 15 14 13 13 14 13 15 14 9
6 6 11 13 9 5 12 3 4 12 9 10 7 6 3 8 8 7 14 22 32 35 18 20 26 26 24 26 27 26 22 22 20 19 19 20 21 18 18 16 13 15 14 14 16 17 21 18 10
11 7 5 4 2 5 3 2 3 1 2 3 4 3 3 7 8 10 16 13 25 25 29 15 15 19 21 22 25 28 24 20 20 20 22 19 20 20 16 16 14 15 17 17 18 18 19 18 13
3 6 2 2 3 5 5 9 7 8 2 3 3 11 10 11 8 8 14 13 24 28 29 30 21 14 16 17 14 20 18 10 10 14 20 18 15 13 13 16 16 21 20 22 17 15 14 19 16
3 5 4 4 4 3 5 5 4 10 9 3 4 8 10 11 7 5 13 17 20 25 29 29 29 30 24 16 22 28 18 9 14 9 11 8 6 10 11 11 16 25 26 19 15 15 12 13 12
3 3 4 2 1 2 4 4 6 17 16 11 9 5 6 7 10 8 14 16 18 20 22 24 23 21 25 26 19 19 6 23 13 9 15 18 16 19 16 14 28 27 19 16 15 12 11 10 9
2 3 0 1 3 4 4 6 9 19 16 14 10 3 8 7 7 12 14 15 14 18 23 22 23 26 30 29 23 28 26 32 28 15 24 23 20 19 22 29 24 21 20 17 13 12 12 10 9
4 2 2 1 3 3 3 5 10 10 11 14 8 7 9 12 13 13 13 16 14 14 15 20 18 21 25 29 30 27 27 27 29 32 32 28 26 27 31 27 25 21 19 16 14 12 12 10 9
4 7 4 3 4 5 6 5 10 11 15 12 11 8 8 10 12 9 12 15 15 13 13 14 16 19 20 27 29 26 26 28 28 28 28 27 30 31 30 26 22 20 18 16 14 14 12 9 9
Wind_Direction
246 260 244 220 227 232 238 232 224 222 229 234 243 230 241 224 203 242 348 173 165 166 166 168 169 163 165 168 166 162 164 164 162 155 151 147 141 140 137 135 126 134 126 122 121 117 111 107 106
214 206 208 234 238 233 233 235 204 232 230 264 235 231 239 233 13 98 123 172 165 167 167 167 170 167 166 168 168 164 167 166 165 159 154 149 145 148 142 142 140 137 129 127 126 123 119 109 106
187 204 226 227 233 237 241 215 234 225 234 237 246 226 232 235 202 164 135 162 167 169 168 168 171 171 167 169 166 165 168 168 166 161 156 151 150 147 147 142 143 146 142 135 129 122 121 118 115
183 188 241 238 238 243 246 247 200 231 241 231 233 249 219 190 140 164 157 161 168 169 172 171 173 173 170 168 165 164 167 168 166 160 156 150 152 151 148 146 153 149 141 136 132 125 123 121 123
197 233 238 238 249 254 262 240 235 229 239 245 225 246 236 166 161 137 155 165 171 171 170 169 177 174 166 168 166 165 168 166 162 159 153 156 153 152 153 153 154 146 138 134 127 125 124 121 118
204 241 237 243 249 250 248 256 224 240 247 249 263 235 255 171 168 167 154 178 173 174 168 168 176 174 165 169 169 167 168 166 161 156 160 158 155 157 154 157 154 148 140 136 128 126 124 120 116
234 229 246 255 260 257 248 258 239 246 238 237 254 251 240 196 196 181 182 189 176 179 169 167 170 170 166 168 169 170 168 163 160 162 163 157 159 158 155 156 156 150 141 139 132 126 124 120 117
240 256 255 252 254 258 255 242 245 240 248 249 239 240 236 234 201 190 172 182 181 180 176 169 170 168 167 164 166 164 161 161 163 161 160 160 160 157 153 158 156 150 145 143 134 129 123 120 115
229 242 246 247 248 252 259 252 246 249 257 247 241 261 295 318 205 175 162 168 184 183 181 171 169 169 169 166 164 164 162 162 163 167 163 159 154 155 156 157 157 151 146 146 143 137 131 125 120
221 237 248 252 259 258 258 252 277 269 238 241 240 256 285 331 212 180 171 161 190 188 181 172 170 170 168 171 167 161 162 162 158 165 162 157 159 163 160 159 157 157 148 146 146 145 138 121 129
227 243 254 258 264 269 268 267 268 267 257 251 236 243 273 324 249 195 185 174 187 189 173 173 170 167 167 169 173 167 164 168 167 168 165 164 162 165 163 164 162 157 152 146 145 144 144 143 140
254 251 262 272 272 270 259 262 258 258 262 257 251 232 254 284 299 311 200 179 172 198 169 170 170 169 169 165 171 177 171 170 173 173 170 166 165 166 166 166 165 163 164 164 164 169 162 151 144
251 265 270 274 274 263 263 257 257 257 258 278 252 264 249 270 300 303 318 194 174 190 167 168 167 172 170 168 167 170 174 175 175 173 175 171 166 168 168 170 170 172 173 172 171 170 167 162 161
278 275 281 282 274 263 257 255 247 251 261 261 254 252 256 261 300 308 280 218 180 169 167 166 169 175 172 173 168 168 170 172 173 175 179 176 173 172 171 171 174 174 171 171 172 173 169 170 175
269 276 275 261 258 243 253 250 242 239 240 267 266 243 240 243 292 305 284 239 157 162 170 172 172 175 178 174 167 166 166 169 173 177 181 180 178 176 172 170 172 172 169 167 170 174 177 178 179
270 283 271 269 239 237 223 252 239 243 233 243 253 252 254 234 279 305 287 265 166 156 164 183 177 178 179 170 172 162 164 168 173 177 181 183 182 179 173 174 172 172 171 172 175 178 183 189 198
222 268 263 269 249 237 210 246 240 221 225 237 238 243 260 246 280 316 294 259 220 159 184 184 182 181 179 173 173 178 168 170 174 179 183 186 185 184 181 180 177 172 173 172 173 179 186 193 212
281 257 266 265 275 260 219 238 210 209 214 228 229 228 229 279 293 316 294 239 221 196 196 189 176 182 180 173 166 168 175 178 179 183 185 187 188 188 184 184 180 179 179 176 177 181 183 191 202
273 273 269 269 273 273 248 226 211 212 209 224 225 224 254 288 314 325 320 202 246 198 195 190 177 176 173 169 161 165 176 179 187 191 189 190 190 191 189 188 186 184 185 183 178 178 186 208 211
263 272 268 277 264 233 232 230 230 210 233 232 228 223 255 279 309 342 297 183 237 192 190 184 184 168 173 176 170 172 173 183 188 192 194 195 193 193 193 190 193 196 192 190 188 189 189 214 216
259 256 262 264 297 200 200 225 206 202 242 249 225 223 224 246 283 332 283 195 206 209 201 182 171 174 174 173 161 163 163 171 183 192 191 195 195 198 194 193 193 190 194 194 199 203 203 218 217
272 256 259 245 243 188 194 189 204 207 215 230 219 210 198 243 257 300 263 209 187 203 196 175 160 165 170 173 169 169 173 176 196 191 189 195 197 200 204 209 208 200 201 205 206 205 211 219 214
256 319 283 275 193 148 208 213 126 188 219 243 227 235 248 258 280 271 242 222 176 178 179 162 170 173 163 179 178 172 187 192 183 184 182 191 194 196 204 203 195 201 203 203 214 213 211 216 225
272 275 248 227 236 127 61 265 84 210 199 167 136 326 326 339 329 258 207 168 150 163 172 193 184 170 169 172 187 185 184 189 170 179 184 191 196 189 193 205 213 211 199 202 205 230 224 223 218
306 301 304 345 20 70 337 64 41 25 293 277 355 24 3 357 307 226 170 154 143 160 177 193 195 169 193 225 213 165 163 171 167 177 188 169 166 181 197 215 210 207 205 221 239 231 222 223 237
333 344 347 9 11 60 32 56 31 23 19 301 128 30 4 346 328 270 162 143 142 153 167 173 181 190 193 193 214 233 248 192 209 217 222 189 204 229 235 233 240 218 213 217 220 222 213 207 207
340 18 327 309 202 55 28 34 90 16 33 48 96 24 335 343 310 227 104 121 141 149 147 160 175 184 183 186 189 196 206 213 205 203 244 238 234 233 238 237 225 215 199 187 183 176 179 176 182
338 282 280 347 29 60 51 51 14 359 11 42 117 31 344 350 320 62 77 90 115 124 149 159 188 188 183 170 176 182 184 183 196 194 211 200 213 220 227 210 197 183 179 181 181 175 184 190 198
337 12 4 6 0 47 94 60 1 360 18 52 81 38 9 347 355 32 54 62 91 125 136 153 169 173 173 165 173 176 176 180 176 184 206 204 205 199 178 174 177 175 178 182 185 188 189 190 198
318 360 2 326 74 42 77 55 10 34 46 60 68 72 351 342 351 29 65 59 71 87 100 124 141 151 154 164 170 175 175 185 189 198 202 189 171 168 169 170 170 173 178 179 183 185 177 176 178